Charleston, SC (29410)

12:30 AM EDT on August 05, 2015 (GMT -0400)
Park Circle | | Change Station
CLOSE
Current Station
Personal Weather Station
Location: North Charleston, SC
Elevation: 20 ft
Nearby Weather Stations

Elev 20 ft 32.89 °N, 79.99 °W | Updated 4 seconds ago

Partly Cloudy
Partly Cloudy
81.8 °F
Feels Like 92 °F
N
0.0
Wind Variable Wind from North
Gusts 0.0 mph

Today
High -- | Low -- °F
--% Chance of Precip.
Yesterday
High -- | Low -- °F
Precip. -- in
6:36 AM 8:15 PM
Waning Gibbous, 71% visible
Pressure 30.00 in
Visibility 10.0 miles
Clouds Scattered Clouds 25000 ft
Heat Index 92 °F
Dew Point 80 °F
Humidity 93%
Rainfall 0.00 in
Snow Depth Not available.
UV 0 out of 12
Pollen 4.30 out of 12
Air Quality Not available.
Flu Activity Not available.
METAR KCHS 050356Z 21007KT 10SM SCT250 26/26 A3000 RMK AO2 SLP159 T02610256

More Conditions Fewer Conditions

Pressure 30.00 in
Visibility 10.0 miles
Clouds Scattered Clouds 25000 ft
Heat Index 92 °F
Dew Point 80 °F
Humidity 93%
Rainfall 0.00 in
Snow Depth Not available.
UV 0 out of 12
Pollen 4.30 out of 12
Air Quality Not available.
Flu Activity Not available.
METAR KCHS 050356Z 21007KT 10SM SCT250 26/26 A3000 RMK AO2 SLP159 T02610256

More Conditions Fewer Conditions

10-Day Weather Forecast

×

Almanac

Astronomy

Aug. 05, 2015 Rise Set
Actual Time
Civil Twilight
Nautical Twilight
Astronomical Twilight
Moon
Length of Visible Light
Length of Day
Tomorrow will be .
, % of the Moon is Illuminated

Today's Extremes

State Highs State Lows

Community

WunderPhotos

Upload Photos

1,844,094 photos uploaded!

WunderBlogs® & News

Nearby

Air Quality

  Air Quality AQ Index Pollutant
Not available.

Snow Depth

Station Depth Elevation

Earthquake Activity

City Distance Mag. Time & Date
Minimum magnitude displayed is 2.5.

Coastal Water Temperatures

Place Temperature

Stations

Nearby Weather Stations

Station Location Temp. Windchill Dew Point Humidity Wind Precip. Elev Updated Type